www.pogodaiklimat.ru

Погода и климат >> Архив погоды >> Мьянма >> Калева


ПОГОДА в Калеве

  • Прогноз погоды в Калеве
  • Монитор погоды в Калеве

АРХИВ ПОГОДЫ в Калеве

Время (UTC), дата Ветер
(напр.,м/с)
 
Видим.   Явления Облачность Т
(С)
Тd
(С)
f
(%)
Тe
(С)
Тes
(С)
Комфортность P
(гПа)
Po
(гПа)
Тmin
(С)
Tmax
(С)
R
(мм)
R24
(мм)
S
(см)
00 17.08 штиль 0 4000 м 9/6 300 м
[Cu Sc Ac lent]
+27.2 +25.6 91 +40 +40 очень
душно
1004.5 992.1 +23.0
03 17.08 штиль 0 5000 м 9/6 300 м
[Cu Sc Ac As]
+28.8 +27.4 92 +46 +49 опасность
перегрева
1005.0 992.7
06 17.08 ЮЗ 1 8000 м 8/5 300 м
[Cu Sc Ac As]
+33.7 +25.7 63 +49 +56 опасность
перегрева
1004.0 991.9
09 17.08 СВ 1 4000 м {гроза, морось} 9/5 200 м
[Cu Sc Ac As]
+29.8 +26.6 83 +46 +49 опасность
перегрева
1002.5 990.2
12 17.08 штиль 0 3000 м {гроза, морось} 8/5 300 м
[Cu Sc Ac As]
+30.8 +28.2 86 +51 +51 опасность
перегрева
1001.8 989.6 +34.7 0.0
00 18.08 штиль 0 3000 м 10/6 200 м
[Cu Sc Ac As]
+27.0 +25.6 92 +40 +40 очень
душно
1005.4 993.0 +23.2
03 18.08 штиль 0 2000 м {морось} 10/6 100 м
[Frnb Ac As]
+27.4 +25.6 90 +40 +43 очень
душно
1007.5 995.1
06 18.08 ЮВ 1 6000 м {морось} 9/5 200 м
[Cu Sc Ac As]
+28.1 +23 +29 комфорт 1006.7 994.3
09 18.08 ЮВ 1 8000 м 8/5 300 м
[Cb calv Ac As]
+33.7 +27.0 68 +52 +55 опасность
перегрева
1004.6 992.5
12 18.08 штиль 0 3000 м 8/5 300 м
[Cu Sc Ac As]
+32.3 +26.5 72 +49 +49 опасность
перегрева
1003.2 991.0 +34.0 0.0
03 19.08 штиль 0 4000 м 10/6 300 м
[Cu Sc Ac As]
+27.6 +26.8 95 +43 +45 опасность
перегрева
1007.5 995.1
06 19.08 ЮВ 1 8000 м 6/5 300 м
[Cu Sc Ac lent]
+33.4 +25.8 65 +49 +59 опасность
перегрева
1006.6 994.4
09 19.08 СВ 1 8000 м 8/5 600 м
[Cu Sc Ac lent]
+34.8 +26.6 63 +52 +55 опасность
перегрева
1004.2 992.1
12 19.08 ЮВ 1 4000 м 8/5 300 м
[Cu Sc Ac As]
+33.5 +25.7 64 +49 +49 опасность
перегрева
1002.2 990.1 +35.1
00 20.08 штиль 0 4000 м 8/5 300 м
[Cu Sc Ac lent Ci fib]
+27.0 +25.6 92 +40 +40 очень
душно
1004.4 992.0 +23.2
03 20.08 ЮЗ 1 4000 м 6/3 300 м
[Cu Sc Ac lent Ci fib]
+30.0 +25.3 76 +44 +52 опасность
перегрева
1005.4 993.1
06 20.08 СВ 1 8000 м 9/5 300 м
[Cu Sc Ac As]
+34.8 +26.6 63 +52 +58 опасность
перегрева
1005.2 993.1
09 20.08 СВ 1 8000 м 9/5 300 м
[Cu Sc Ac As]
+35.1 +26.6 62 +52 +55 опасность
перегрева
1001.8 989.8
12 20.08 штиль 0 4000 м 8/5 300 м
[Cu Sc Ac As]
+33.4 +27.5 71 +53 +53 опасность
перегрева
1000.4 988.3 +35.4
00 21.08 ЮЗ 1 4000 м 8/4 300 м
[Cu Sc Ac As]
+27.8 +26.8 94 +43 +43 опасность
перегрева
1003.2 990.9 +23.2
03 21.08 Ю 1 4000 м гроза без осадков 10/6 300 м
[Cb cap Ac As]
+28.2 +26.8 92 +44 +46 опасность
перегрева
1004.6 992.3
06 21.08 ЮВ 1 2000 м гроза, ливневой дождь {морось} 10/6 100 м
[Cb cap Ac As]
+29.5 +26.6 84 +45 +48 опасность
перегрева
1005.5 993.2
12 21.08 ЮЗ 1 4000 м 5/4 300 м
[Cb calv Ac lent]
+32.0 +26.5 73 +49 +49 опасность
перегрева
1001.4 989.2 +33.9 0.0
00 22.08 штиль 0 4000 м 8/4 300 м
[Cu Sc Ac lent Ci fib]
+26.0 +24.6 92 +37 +37 очень
душно
1004.4 992.0 +22.0
03 22.08 штиль 0 5000 м 6/3 300 м
[Cu Sc Ac lent Ci fib]
+28.8 +24.8 79 +41 +51 опасность
перегрева
1004.8 992.5
06 22.08 СВ 1 8000 м 6/5 300 м
[Cu Sc Ac lent]
+33.7 +25.7 63 +49 +59 опасность
перегрева
1004.4 992.3
09 22.08 СВ 1 10 км 6/5 300 м
[Cb calv Ac lent]
+35.3 +24.0 52 +47 +52 опасность
перегрева
1001.5 989.5
12 22.08 ЮЗ 1 4000 м 6/4 300 м
[Cu Sc Ac lent Ci fib]
+33.5 +25.7 64 +49 +49 опасность
перегрева
1000.2 988.1 +35.5
00 23.08 штиль 0 4000 м 10/6 300 м
[Cu Sc Ac As]
+28.2 +25.0 83 +41 +41 опасность
перегрева
1003.9 991.6 +24.0
03 23.08 Ю 1 5000 м 10/6 300 м
[Cu Sc Ac As]
+28.8 +25.9 84 +43 +45 опасность
перегрева
1005.8 993.5
06 23.08 штиль 0 3000 м слаб. морось 10/6 200 м
[Cu Sc Ac As]
+29.9 +26.6 83 +46 +50 опасность
перегрева
1005.0 992.7
09 23.08 штиль 0 6000 м {гроза, дождь} 10/6 200 м
[Cu Sc Ac As]
+27.2 +27.2 100 +43 +45 опасность
перегрева
1003.0 990.6
12 23.08 СЗ 1 3000 м {гроза, дождь} 10/6 200 м
[Cu Sc Ac As]
+27.0 +25.6 92 +40 +40 очень
душно
1004.7 992.3 +31.1 23

 

Местоположение метеостанции Калева (Мьянма): широта 23.20 долгота 94.30 высота над уровнем моря 109 м.

В архиве по умолчанию представлена погода в Калеве за последнюю неделю. Архивные данные за месяц целиком и за предыдущие месяцы, начиная с января 2011 года, Вы можете получить, выбрав интересующий диапазон дат из раскрывающегося списка и нажав кнопку "Ввод!".


*Определитесь, кто Вы:
робот инопланетянин человек

Внимание! Время в таблицах - всемирное. Для получения местного времени необходимо прибавить поправку, которая равна 6.5 ч.

Смотрите также архив погоды в соседних городах и на ближайших метеорологических станциях:

Погода в Молейке (Мьянма) (49 км)
Погода в Пхалане (Мьянма) (71 км)
Погода в Хакхе (Мьянма) (93 км)
Погода в Моунъюа (Мьянма) (149 км)
Погода в Шуэбо (Мьянма) (161 км)
Погода в Импхале (Манипур, Индия) (168 км)
Погода в Аиджале (Мизорам, Индия) (172 км)
Погода в Ленгпи (Мизорам, Индия) (185 км)
Погода в Хомалине (Мьянма) (196 км)
Погода в Миндате (Мьянма) (206 км)

Пояснения к столбцам:

Ветер - указаны скорость ветра в м/с - средняя за 10 мин, порывы в срок и между сроками (в фигурных скобках) и направление, откуда дует ветер: С - северный, СВ - северо-восточный, В - восточный, ЮВ - юго-восточный, Ю - южный, ЮЗ - юго-западный, З - западный, СЗ - северо-западный.
Видимость - горизонтальная дальность видимости в метрах или километрах. При видимости от 1 до 10 км при отсутствии осадков обычно наблюдается дымка, при ухудшении видимости до 1 км и менее - туман. В сухую погоду видимость может ухудшаться дымом, пылью или мглою.
Явления - указаны атмосферные явления, наблюдавшиеся в срок или в последний час перед сроком; фигурными скобками обозначены явления, наблюдавшиеся между сроками (за 1-3 часа до срока); квадратными скобками обозначены град или гололедные отложения с указанием их диаметра в мм.
Облачность - указаны через наклонную черту общая и нижняя облачность в баллах и высота нижней границы облаков в метрах; квадратными скобками обозначены формы облаков: Ci - перистые, Cs - перисто-слоистые, Cc - перисто-кучевые, Ac - высококучевые, As - высокослоистые, Sc - слоисто-кучевые, Ns - слоисто-дождевые, Cu - кучевые, Cb - кучево-дождевые. Подробнее классификацию облаков см. в Атласе облаков (PDF).
T - Температура воздуха - температура, измеренная на высоте 2 м над землей.
Td - Температура точки росы - температура, при понижении до которой содержащийся в воздухе водяной пар достигнет насыщения.
f - Относительная влажность воздуха - влажноcть воздуха, измеренная на высоте 2 м над землей.
Te - Эффективная температура - температура, которую ощущает одетый по сезону человек в тени. Характеристика душности погоды. При расчете учитывается влияние влажности воздуха и скорости ветра на теплоощущения человека.
Tes - Эффективная температура на солнце - температура, которую ощущает человек, с поправкой на солнечный нагрев. Характеристика знойности погоды. Зависит от высоты солнца над горизонтом, облачности и скорости ветра. Ночью, в пасмурную погоду, а также при ветре 12 м/с и более поправка равна нулю.
P - Атмосферное давление - приведенное к уровню моря атмосферное давление.
Po - Атмосферное давление - измеренное на уровне метеостанции атмосферное давление.
Tmin - Минимальная температура - минимум температуры воздуха на высоте 2 м над землей.
Tmax - Максимальная температура - максимум температуры воздуха на высоте 2 м над землей.
R - Количество осадков - Количество выпавших осадков за период времени, мм. При наведении курсора мыши на число - период времени, за который выпало указанное количество осадков.
R24 - Количество осадков - Количество выпавших осадков за 24 часа, мм.
S - Снежный покров - Высота снежного покрова, см. При наведении курсора мыши на число - состояние снежного покрова и степень покрытия местности в баллах.